This demonstration page uses our WeatherBlox Daily Observations layout. Learn more.

Left ArrowRight Arrow

38.20091, -84.87328

Hourly Observations for July 3, 2017

Temp ( °F °C ) Dew Point ( °F °C ) Humidity (%) Winds ( mph kmh ) Pressure ( in mb ) Visibility ( mi km ) Precip ( " mm )
12:53 am 00:53 Clear 70 21.1 65 18.3 84 84 Calm 30.07 1018 10 16 0.00 0.00
1:53 am 01:53 Clear 68 20 63 17.2 84 84 Calm 30.06 1018 10 16 0.00 0.00
2:53 am 02:53 Clear 68 20 63 17.2 84 84 Calm 30.04 1017 10 16 0.00 0.00
3:53 am 03:53 Clear 67 19.4 63 17.2 87 87 Calm 30.03 1017 10 16 0.00 0.00
4:53 am 04:53 Clear 66 18.9 62 16.7 87 87 Calm 30.03 1017 10 16 0.00 0.00
5:53 am 05:53 Clear 65 18.3 61 16.1 87 87 Calm 30.04 1017 10 16 0.00 0.00
6:53 am 06:53 Sunny 66 18.9 62 16.7 87 87 Calm 30.05 1018 8 13 0.00 0.00
7:53 am 07:53 Mostly Sunny 69 20.6 65 18.3 87 87 Calm 30.07 1018 10 16 0.00 0.00
8:53 am 08:53 Sunny 74 23.3 67 19.4 79 79 Calm 30.07 1018 10 16 0.00 0.00
9:53 am 09:53 Mostly Sunny 80 26.7 66 18.9 62 62 Calm 30.07 1018 10 16 0.00 0.00
10:53 am 10:53 Mostly Sunny 83 28.3 65 18.3 55 55 ESE 5 7 30.07 1018 10 16 0.00 0.00
11:53 am 11:53 Mostly Cloudy 84 28.9 60 15.6 44 44 N 3 6 30.08 1019 10 16 0.00 0.00
12:53 pm 12:53 Partly Cloudy 86 30 63 17.2 46 46 VRB 5 7 30.06 1018 10 16 0.00 0.00
1:53 pm 13:53 Sunny 87 30.6 60 15.6 40 40 NNW 5 7 30.04 1017 10 16 0.00 0.00
2:53 pm 14:53 Sunny 87 30.6 62 16.7 43 43 NNW 7 11 30.03 1017 10 16 0.00 0.00
3:53 pm 15:53 Sunny 87 30.6 63 17.2 45 45 N 5 7 30.04 1017 10 16 0.00 0.00
4:53 pm 16:53 Sunny 87 30.6 62 16.7 43 43 N 6 9 30.03 1017 10 16 0.00 0.00
5:53 pm 17:53 Sunny 85 29.4 64 17.8 50 50 VRB 3 6 30.01 1016 10 16 0.00 0.00
6:53 pm 18:53 Sunny 81 27.2 70 21.1 69 69 SSE 7 11 30.01 1016 10 16 0.00 0.00
7:53 pm 19:53 Sunny 80 26.7 69 20.6 69 69 ESE 3 6 29.99 1016 10 16 0.00 0.00
8:53 pm 20:53 Sunny 79 26.1 68 20 69 69 SSE 7 11 30.01 1016 10 16 0.00 0.00
9:53 pm 21:53 Clear 78 25.6 68 20 71 71 S 7 11 30.01 1016 10 16 0.00 0.00
10:53 pm 22:53 Clear 77 25 69 20.6 77 77 Calm 30.02 1017 10 16 0.00 0.00
11:53 pm 23:53 Clear 76 24.4 69 20.6 79 79 S 5 7 30.01 1016 10 16 0.00 0.00

Powered by AerisWeather